Temp
-10 -10 -9 -9 -10 -10 -11 -10 -10 -10 -10 -10 -10 -10 -11 -11 -10 -10 -10 -10 -10 -11 -10 -10 -10 -10 -10 -9 -9 -9 -9 -9 -8 -8 -9 -8 -9 -9 -9 -9 -9 -9 -9 -9 -9 -9 -9 -9 -9
-10 -10 -10 -10 -10 -11 -11 -10 -11 -11 -10 -11 -11 -11 -12 -11 -11 -11 -11 -11 -11 -11 -10 -10 -10 -10 -10 -10 -10 -10 -9 -9 -9 -9 -9 -9 -9 -9 -9 -9 -9 -9 -9 -9 -9 -9 -9 -9 -9
-10 -10 -10 -10 -11 -11 -11 -11 -11 -11 -10 -11 -11 -12 -12 -13 -12 -12 -11 -12 -11 -11 -10 -10 -10 -10 -10 -10 -10 -10 -10 -10 -10 -9 -9 -9 -9 -9 -9 -9 -9 -9 -9 -9 -9 -9 -9 -9 -9
-10 -10 -10 -11 -11 -11 -11 -11 -11 -11 -12 -12 -12 -12 -13 -13 -12 -11 -11 -12 -12 -12 -11 -11 -11 -11 -11 -11 -10 -10 -10 -10 -10 -10 -10 -9 -9 -9 -10 -10 -9 -9 -9 -9 -9 -9 -9 -9 -9
-11 -10 -10 -11 -11 -11 -11 -12 -12 -12 -12 -12 -12 -13 -12 -12 -12 -12 -11 -12 -12 -12 -12 -11 -11 -11 -11 -11 -11 -11 -10 -11 -11 -10 -10 -10 -10 -10 -10 -10 -10 -10 -10 -9 -9 -9 -9 -9 -9
-11 -11 -11 -10 -11 -10 -10 -11 -11 -12 -12 -12 -11 -12 -12 -12 -12 -12 -12 -12 -12 -12 -12 -12 -11 -11 -11 -11 -11 -11 -11 -11 -10 -11 -10 -10 -10 -10 -10 -10 -10 -10 -10 -10 -10 -9 -9 -9 -9
-11 -11 -11 -11 -11 -11 -11 -11 -11 -11 -12 -12 -11 -12 -12 -12 -12 -12 -12 -12 -12 -12 -12 -12 -12 -12 -11 -11 -11 -11 -11 -11 -11 -10 -11 -10 -10 -10 -10 -10 -10 -10 -10 -10 -10 -10 -9 -9 -9
-11 -11 -11 -11 -11 -11 -11 -11 -11 -11 -11 -12 -12 -12 -12 -12 -12 -12 -12 -12 -12 -12 -11 -12 -12 -12 -12 -12 -12 -11 -12 -11 -11 -11 -11 -11 -11 -10 -10 -10 -10 -10 -10 -11 -10 -10 -10 -10 -10
-11 -11 -11 -11 -11 -11 -11 -11 -11 -11 -11 -11 -12 -12 -12 -12 -12 -12 -12 -12 -12 -12 -12 -12 -12 -11 -11 -11 -12 -12 -11 -11 -11 -11 -11 -11 -11 -11 -11 -10 -10 -10 -11 -11 -11 -11 -10 -10 -10
-11 -11 -11 -11 -11 -11 -11 -11 -11 -11 -11 -11 -12 -12 -12 -12 -12 -12 -12 -12 -12 -11 -11 -11 -11 -11 -12 -12 -12 -11 -11 -11 -11 -10 -11 -11 -11 -12 -12 -11 -11 -10 -10 -10 -11 -11 -11 -10 -10
-12 -12 -11 -11 -11 -11 -11 -11 -11 -12 -12 -12 -12 -12 -12 -12 -12 -12 -12 -12 -12 -12 -11 -11 -11 -11 -11 -11 -11 -11 -12 -12 -12 -12 -11 -10 -11 -11 -11 -12 -12 -11 -11 -11 -11 -11 -11 -11 -11
-12 -12 -12 -12 -12 -12 -12 -12 -12 -12 -12 -12 -13 -12 -12 -13 -13 -12 -12 -12 -12 -12 -12 -12 -12 -12 -12 -12 -12 -11 -11 -11 -11 -12 -11 -11 -11 -11 -12 -12 -12 -12 -11 -11 -11 -11 -11 -12 -12
-12 -12 -12 -12 -12 -12 -12 -12 -12 -13 -13 -13 -13 -13 -13 -12 -12 -12 -12 -12 -12 -12 -12 -12 -12 -12 -12 -12 -12 -12 -12 -12 -12 -11 -11 -11 -13 -11 -12 -12 -12 -12 -13 -12 -12 -11 -11 -11 -11
-12 -12 -12 -13 -12 -12 -12 -12 -13 -13 -13 -13 -12 -12 -12 -12 -12 -12 -11 -12 -12 -12 -12 -12 -13 -13 -13 -13 -13 -12 -13 -12 -12 -12 -12 -12 -12 -12 -12 -12 -12 -12 -12 -12 -12 -12 -12 -12 -12
-12 -13 -13 -13 -13 -12 -12 -13 -13 -13 -13 -13 -13 -12 -12 -12 -12 -12 -13 -13 -13 -13 -14 -15 -15 -15 -15 -14 -14 -13 -13 -13 -13 -13 -12 -12 -12 -12 -13 -12 -12 -12 -13 -13 -13 -13 -12 -12 -12
-13 -13 -13 -13 -13 -13 -13 -13 -13 -13 -13 -13 -12 -12 -12 -12 -12 -12 -13 -14 -15 -15 -15 -15 -15 -16 -16 -15 -15 -15 -14 -14 -13 -13 -13 -13 -13 -13 -13 -12 -13 -13 -12 -12 -12 -13 -13 -12 -12
-13 -13 -13 -13 -13 -13 -13 -13 -13 -13 -13 -13 -12 -12 -12 -12 -12 -13 -14 -14 -15 -16 -16 -16 -16 -16 -16 -16 -15 -15 -15 -15 -14 -14 -14 -13 -13 -13 -13 -14 -13 -13 -13 -12 -12 -13 -13 -13 -13
-14 -14 -13 -13 -13 -13 -13 -13 -13 -13 -13 -13 -13 -12 -12 -13 -13 -14 -15 -15 -15 -16 -16 -16 -16 -16 -16 -16 -16 -16 -16 -16 -16 -15 -14 -14 -14 -14 -13 -14 -14 -14 -13 -14 -13 -13 -13 -13 -13
-14 -14 -13 -13 -13 -13 -13 -14 -13 -13 -13 -13 -13 -13 -13 -13 -14 -15 -16 -16 -16 -16 -16 -16 -16 -16 -16 -16 -16 -16 -16 -16 -16 -16 -16 -15 -14 -15 -14 -14 -14 -14 -13 -13 -14 -13 -13 -13 -13
-14 -14 -14 -13 -14 -13 -13 -14 -13 -13 -13 -13 -13 -13 -13 -13 -16 -17 -17 -16 -16 -16 -16 -16 -16 -15 -16 -16 -16 -16 -16 -16 -16 -16 -16 -16 -16 -15 -14 -14 -14 -14 -14 -14 -13 -14 -13 -14 -13
-14 -14 -14 -14 -14 -14 -13 -13 -14 -14 -13 -13 -13 -13 -14 -15 -17 -17 -16 -16 -16 -16 -15 -15 -16 -16 -17 -17 -16 -16 -16 -16 -16 -16 -16 -16 -16 -16 -16 -15 -14 -15 -14 -14 -14 -14 -14 -15 -14
-14 -14 -14 -14 -14 -14 -14 -13 -14 -13 -13 -13 -13 -14 -15 -16 -16 -16 -16 -16 -16 -16 -16 -16 -17 -17 -16 -16 -15 -15 -15 -15 -16 -16 -16 -16 -17 -17 -16 -16 -16 -14 -15 -14 -15 -14 -14 -15 -14
-15 -15 -15 -14 -14 -14 -14 -14 -14 -13 -13 -13 -14 -15 -15 -15 -16 -16 -16 -16 -16 -16 -16 -16 -16 -17 -16 -15 -15 -15 -15 -15 -16 -16 -17 -18 -18 -17 -17 -17 -17 -16 -15 -14 -14 -15 -15 -14 -14
-15 -15 -15 -14 -14 -14 -14 -14 -14 -14 -14 -14 -15 -15 -15 -16 -16 -16 -16 -16 -16 -16 -16 -16 -16 -17 -17 -17 -18 -17 -16 -16 -17 -18 -20 -20 -20 -20 -19 -18 -18 -17 -16 -16 -15 -14 -15 -15 -14
-15 -15 -15 -14 -14 -14 -14 -14 -14 -14 -14 -15 -15 -16 -16 -16 -16 -16 -16 -16 -16 -17 -17 -17 -16 -17 -17 -18 -18 -17 -18 -19 -20 -21 -22 -21 -21 -21 -21 -20 -19 -18 -17 -16 -17 -15 -15 -15 -14
-15 -15 -15 -15 -14 -14 -14 -15 -14 -14 -14 -15 -16 -17 -17 -17 -17 -16 -16 -16 -16 -16 -17 -17 -17 -17 -18 -18 -18 -18 -20 -21 -21 -23 -23 -23 -23 -22 -21 -21 -20 -19 -18 -17 -17 -17 -15 -15 -15
-16 -16 -15 -15 -15 -14 -14 -15 -15 -14 -15 -16 -16 -17 -17 -17 -17 -16 -16 -16 -16 -17 -17 -17 -17 -18 -18 -18 -18 -19 -20 -21 -22 -23 -24 -24 -24 -23 -23 -22 -21 -20 -19 -18 -17 -18 -17 -15 -15
-16 -16 -16 -15 -15 -14 -14 -15 -15 -15 -15 -16 -16 -17 -17 -17 -17 -16 -16 -17 -17 -17 -18 -17 -18 -18 -19 -19 -19 -19 -20 -21 -22 -23 -23 -23 -23 -22 -23 -22 -22 -21 -20 -18 -17 -17 -18 -17 -15
-16 -16 -16 -16 -15 -15 -14 -15 -14 -15 -15 -16 -16 -17 -17 -17 -17 -17 -17 -17 -18 -18 -18 -18 -18 -19 -19 -19 -19 -20 -20 -21 -22 -22 -22 -22 -22 -22 -23 -23 -22 -21 -20 -19 -17 -17 -18 -18 -16
-16 -16 -16 -16 -15 -15 -15 -15 -15 -15 -15 -16 -17 -17 -17 -17 -17 -17 -18 -18 -18 -18 -18 -18 -19 -19 -19 -19 -19 -20 -20 -21 -22 -23 -22 -22 -22 -22 -22 -23 -22 -20 -20 -19 -17 -17 -17 -18 -17
Height
5764 5761 5759 5759 5763 5763 5765 5768 5769 5771 5774 5776 5778 5781 5783 5785 5786 5789 5788 5789 5790 5792 5795 5797 5798 5799 5799 5800 5800 5801 5803 5804 5805 5807 5810 5811 5813 5813 5815 5816 5817 5820 5822 5823 5824 5826 5828 5829 5830
5764 5761 5757 5755 5757 5759 5762 5763 5766 5767 5769 5772 5774 5776 5778 5780 5781 5781 5783 5784 5785 5788 5790 5793 5793 5794 5795 5796 5797 5797 5797 5799 5801 5802 5804 5806 5808 5809 5810 5812 5813 5814 5817 5818 5820 5822 5823 5824 5826
5762 5759 5757 5753 5753 5756 5759 5761 5763 5764 5765 5767 5768 5770 5773 5775 5776 5776 5777 5778 5780 5783 5785 5787 5789 5790 5791 5791 5793 5793 5792 5794 5796 5797 5799 5801 5802 5804 5806 5806 5809 5810 5812 5813 5815 5817 5819 5820 5821
5760 5759 5756 5751 5752 5755 5756 5758 5760 5760 5761 5762 5764 5765 5767 5770 5772 5773 5773 5774 5775 5776 5779 5782 5783 5785 5786 5786 5786 5788 5787 5788 5790 5791 5793 5794 5798 5798 5800 5802 5802 5805 5807 5808 5810 5812 5813 5815 5816
5759 5758 5756 5754 5753 5754 5754 5755 5756 5757 5759 5760 5762 5764 5766 5767 5768 5769 5769 5770 5771 5771 5772 5773 5776 5777 5779 5780 5781 5781 5782 5783 5784 5786 5788 5789 5790 5792 5793 5795 5797 5797 5800 5803 5804 5806 5808 5809 5811
5758 5757 5757 5755 5755 5754 5754 5754 5755 5756 5757 5760 5760 5761 5764 5763 5763 5764 5764 5765 5766 5767 5767 5768 5769 5772 5774 5774 5774 5775 5776 5776 5778 5780 5782 5784 5785 5786 5787 5788 5790 5792 5793 5797 5799 5801 5802 5803 5805
5757 5757 5757 5756 5755 5754 5754 5754 5754 5755 5755 5757 5758 5760 5761 5760 5760 5760 5759 5760 5761 5762 5763 5763 5764 5765 5767 5768 5769 5769 5769 5770 5770 5772 5774 5777 5779 5780 5781 5781 5784 5786 5787 5790 5792 5794 5796 5798 5798
5756 5757 5756 5756 5755 5755 5754 5754 5754 5755 5755 5757 5758 5759 5759 5759 5759 5759 5758 5758 5758 5758 5758 5758 5759 5759 5758 5760 5761 5762 5763 5763 5765 5765 5766 5768 5770 5771 5773 5773 5775 5778 5780 5781 5784 5786 5789 5791 5793
5755 5756 5755 5754 5754 5754 5754 5754 5754 5754 5755 5756 5757 5757 5757 5756 5755 5755 5755 5755 5755 5755 5753 5753 5753 5754 5754 5753 5753 5753 5754 5754 5754 5755 5758 5760 5760 5761 5764 5766 5766 5768 5771 5773 5775 5778 5781 5782 5786
5753 5753 5752 5752 5752 5751 5751 5752 5752 5752 5752 5752 5752 5752 5752 5751 5750 5751 5751 5751 5750 5750 5749 5748 5747 5746 5746 5745 5745 5745 5746 5744 5742 5746 5750 5750 5750 5749 5751 5755 5756 5758 5761 5764 5766 5769 5772 5775 5777
5750 5750 5750 5749 5749 5749 5749 5749 5749 5749 5748 5748 5748 5747 5747 5747 5747 5746 5746 5745 5744 5743 5742 5741 5740 5739 5738 5737 5736 5736 5737 5736 5735 5737 5738 5735 5734 5737 5739 5743 5745 5749 5750 5754 5756 5760 5762 5767 5769
5747 5747 5747 5747 5746 5746 5746 5745 5746 5745 5745 5744 5744 5743 5743 5742 5742 5741 5739 5738 5736 5735 5732 5730 5729 5728 5728 5726 5725 5725 5726 5726 5725 5726 5727 5728 5721 5726 5729 5732 5734 5736 5739 5743 5745 5748 5752 5755 5760
5744 5744 5744 5744 5743 5743 5742 5742 5742 5742 5742 5741 5741 5739 5738 5736 5734 5732 5730 5729 5727 5724 5720 5717 5715 5713 5713 5714 5713 5712 5713 5714 5713 5713 5714 5714 5716 5715 5716 5719 5721 5723 5726 5730 5732 5736 5740 5743 5748
5740 5740 5741 5740 5740 5739 5738 5738 5739 5738 5738 5736 5735 5733 5731 5728 5725 5722 5720 5717 5713 5708 5703 5700 5698 5696 5697 5697 5698 5698 5698 5699 5700 5700 5701 5702 5702 5706 5704 5706 5707 5710 5713 5717 5721 5723 5727 5731 5735
5736 5736 5736 5736 5736 5735 5735 5735 5734 5733 5733 5731 5729 5727 5725 5721 5717 5714 5709 5703 5698 5692 5688 5685 5682 5680 5678 5678 5679 5682 5682 5684 5684 5685 5686 5687 5688 5689 5692 5695 5694 5699 5702 5703 5708 5712 5714 5717 5723
5730 5731 5731 5731 5731 5730 5730 5730 5729 5728 5727 5724 5722 5720 5716 5712 5708 5703 5697 5692 5686 5682 5678 5676 5673 5670 5668 5666 5665 5664 5665 5665 5668 5669 5669 5671 5672 5674 5676 5680 5685 5686 5690 5692 5694 5698 5702 5706 5709
5725 5726 5726 5726 5725 5725 5724 5723 5723 5721 5721 5717 5714 5711 5706 5701 5696 5690 5684 5679 5675 5673 5669 5665 5661 5659 5655 5653 5652 5651 5651 5649 5649 5650 5651 5653 5655 5657 5659 5665 5670 5672 5675 5679 5682 5684 5688 5693 5696
5720 5721 5721 5720 5721 5719 5718 5717 5716 5714 5715 5711 5707 5701 5696 5690 5684 5677 5672 5667 5664 5663 5659 5655 5651 5646 5642 5639 5637 5636 5635 5633 5632 5632 5632 5633 5634 5636 5641 5646 5653 5657 5659 5666 5666 5671 5676 5679 5684
5716 5716 5715 5715 5715 5713 5712 5713 5709 5707 5706 5702 5698 5693 5686 5679 5672 5665 5661 5659 5655 5652 5647 5642 5638 5632 5628 5625 5622 5619 5618 5616 5615 5614 5613 5612 5613 5615 5619 5625 5632 5638 5643 5647 5654 5655 5662 5666 5669
5711 5710 5710 5710 5707 5707 5706 5706 5704 5701 5698 5694 5689 5683 5676 5667 5660 5656 5652 5649 5646 5642 5636 5631 5626 5620 5615 5610 5606 5601 5599 5598 5596 5594 5593 5591 5592 5593 5597 5602 5610 5615 5623 5629 5636 5642 5645 5649 5656
5705 5705 5704 5704 5702 5700 5700 5700 5698 5695 5691 5686 5680 5673 5664 5656 5652 5649 5646 5642 5638 5632 5625 5619 5613 5606 5597 5588 5583 5579 5577 5576 5575 5572 5571 5570 5570 5571 5573 5577 5585 5593 5601 5610 5619 5624 5632 5632 5643
5699 5699 5699 5697 5696 5695 5694 5692 5691 5687 5684 5679 5673 5665 5658 5652 5648 5644 5639 5634 5627 5622 5615 5608 5601 5593 5582 5573 5567 5562 5559 5555 5549 5547 5545 5546 5545 5547 5550 5552 5556 5565 5578 5591 5605 5606 5612 5620 5628
5695 5694 5693 5692 5690 5689 5688 5685 5684 5680 5676 5670 5664 5658 5654 5649 5644 5638 5631 5626 5620 5612 5605 5596 5588 5577 5567 5559 5551 5545 5540 5534 5528 5523 5519 5517 5515 5517 5522 5527 5531 5538 5550 5564 5578 5587 5597 5601 5610
5688 5688 5687 5686 5685 5684 5682 5679 5678 5673 5670 5664 5658 5652 5647 5642 5636 5630 5625 5617 5611 5602 5594 5585 5576 5566 5556 5546 5537 5529 5522 5514 5506 5498 5493 5490 5489 5489 5492 5497 5504 5512 5523 5537 5551 5566 5580 5584 5594
5682 5682 5681 5681 5680 5678 5675 5673 5670 5666 5663 5656 5651 5645 5641 5636 5630 5624 5617 5610 5602 5593 5585 5575 5565 5555 5544 5534 5523 5513 5502 5491 5481 5472 5465 5461 5461 5462 5464 5468 5476 5485 5497 5511 5524 5540 5557 5571 5578
5676 5676 5675 5672 5673 5671 5669 5667 5663 5660 5655 5649 5644 5639 5634 5629 5623 5617 5610 5602 5593 5584 5575 5565 5555 5544 5532 5520 5509 5498 5485 5471 5458 5446 5437 5434 5431 5434 5436 5440 5448 5460 5472 5487 5502 5514 5533 5549 5559
5670 5670 5669 5667 5666 5663 5663 5663 5658 5654 5649 5644 5638 5633 5627 5622 5616 5609 5601 5593 5584 5575 5565 5555 5544 5532 5520 5508 5498 5485 5470 5453 5437 5427 5420 5412 5406 5405 5409 5415 5425 5436 5450 5465 5482 5497 5510 5527 5542
5663 5664 5663 5662 5659 5658 5656 5656 5651 5648 5643 5638 5633 5627 5620 5614 5608 5601 5593 5585 5575 5566 5555 5544 5532 5521 5509 5498 5486 5473 5458 5442 5428 5416 5405 5394 5386 5383 5386 5393 5405 5418 5431 5447 5463 5480 5494 5507 5526
5656 5656 5656 5655 5654 5651 5648 5650 5645 5640 5636 5631 5626 5621 5615 5609 5602 5594 5585 5575 5565 5555 5545 5534 5523 5513 5502 5490 5477 5464 5448 5432 5418 5405 5391 5379 5370 5366 5368 5376 5388 5404 5418 5432 5449 5467 5481 5493 5508
5649 5649 5648 5646 5647 5645 5642 5645 5639 5634 5630 5625 5620 5615 5608 5602 5594 5586 5577 5567 5557 5546 5536 5526 5515 5505 5495 5483 5471 5457 5440 5423 5408 5395 5383 5369 5360 5355 5357 5365 5378 5394 5409 5422 5439 5456 5471 5482 5495
Wind_Speed
15 15 16 20 21 16 16 19 20 24 23 24 25 26 27 27 29 29 28 28 29 27 27 23 19 19 20 21 21 22 22 22 23 24 25 26 27 27 26 27 25 24 23 23 23 23 24 23 23
12 14 10 16 19 16 20 21 19 22 21 21 23 24 25 24 25 28 29 29 29 31 32 30 27 28 29 26 26 24 23 24 25 25 26 27 28 29 29 30 28 26 25 25 24 23 24 24 23
10 11 13 11 15 17 17 17 17 21 25 25 26 24 24 23 25 27 28 30 31 30 31 31 31 29 30 27 25 27 25 26 27 26 27 28 29 30 30 30 30 29 26 26 25 25 25 25 25
8 9 12 6 4 7 10 12 11 13 13 14 17 21 19 19 21 27 31 30 31 32 31 31 30 27 29 30 28 28 28 28 29 29 28 28 31 30 32 32 31 31 29 27 26 26 26 26 26
6 7 7 5 6 3 7 10 6 5 4 5 10 10 9 11 14 18 28 33 30 31 32 34 32 32 31 31 30 30 31 30 30 31 31 31 31 32 33 35 35 33 32 31 29 27 27 28 28
4 5 5 3 4 6 6 0 3 5 6 4 1 3 10 11 14 18 21 27 29 32 32 34 33 34 34 33 34 34 35 33 32 33 33 34 33 34 35 36 37 37 34 34 34 31 31 30 29
2 3 3 4 5 5 5 6 5 3 1 1 3 4 7 6 11 15 21 20 27 31 33 34 35 35 34 36 38 38 39 37 37 36 36 36 36 37 37 38 38 39 37 36 36 36 34 33 32
1 1 2 1 1 0 1 1 1 1 2 3 5 5 8 12 13 14 13 20 25 28 32 33 34 36 40 39 39 37 41 41 43 41 40 40 39 41 40 41 41 41 40 40 39 38 37 36 34
4 3 3 2 2 2 3 4 4 6 8 8 8 10 12 14 16 17 16 17 21 24 27 31 35 35 37 41 41 37 38 39 44 47 44 43 43 43 44 43 43 44 43 43 43 42 40 39 37
8 8 6 6 6 5 5 6 6 8 9 9 11 12 12 14 16 18 20 21 23 26 28 32 35 36 36 37 40 40 39 47 41 33 41 48 50 47 47 48 47 47 47 46 46 45 44 43 41
11 11 11 10 10 9 9 9 10 11 12 11 13 14 15 18 19 21 23 26 29 31 33 34 36 40 42 42 44 44 45 45 43 42 43 43 52 54 53 52 51 52 49 49 47 48 46 44 44
13 13 14 14 13 13 14 14 12 12 11 14 16 18 21 23 26 29 33 36 39 42 44 45 45 46 46 48 49 50 50 51 52 51 51 49 45 46 56 52 52 53 53 51 51 51 48 47 47
14 16 16 16 16 15 17 16 13 14 15 16 18 21 25 29 33 37 38 41 46 51 53 55 57 56 56 54 55 55 56 55 55 56 55 57 50 45 41 54 52 56 56 55 54 53 52 50 49
17 18 18 17 17 18 18 18 15 18 18 20 22 26 30 33 37 42 44 49 52 54 58 60 58 61 64 63 63 62 62 61 61 61 60 60 63 58 55 49 57 55 58 57 58 56 55 53 52
20 19 18 17 18 18 19 19 18 19 21 24 26 30 33 38 43 45 49 53 55 50 45 42 42 47 50 62 69 69 69 68 67 67 67 65 65 66 67 61 49 52 58 62 61 60 59 56 55
21 20 19 18 18 19 20 19 21 22 23 28 30 33 38 42 47 52 55 54 46 41 40 40 42 42 44 46 48 57 74 77 74 74 74 72 70 69 67 68 67 65 52 56 61 61 63 59 57
23 21 20 19 21 20 20 22 22 25 26 31 36 39 43 49 53 57 57 52 42 43 44 44 45 47 49 50 50 52 55 58 73 82 80 80 78 77 74 68 67 66 66 55 55 60 62 63 61
23 22 22 20 20 20 21 23 26 28 29 34 38 42 48 53 60 60 53 43 39 43 45 45 46 49 50 52 54 56 57 59 60 64 78 89 86 85 83 78 74 70 68 69 67 56 53 68 69
24 23 22 22 21 20 23 23 28 31 33 36 41 46 53 60 61 48 40 36 38 44 44 43 44 46 49 51 54 55 56 59 63 67 68 70 85 93 90 87 82 76 61 66 76 62 66 56 60
24 24 22 22 22 21 24 24 28 31 34 37 43 50 58 65 45 36 37 37 42 46 46 47 46 48 54 58 59 61 63 65 66 68 71 73 74 78 94 95 91 88 85 83 79 74 62 69 59
25 23 22 22 22 23 23 24 28 31 34 39 46 56 58 41 32 33 36 39 42 43 44 44 47 50 57 56 55 58 62 68 73 75 76 78 79 78 81 87 100 95 92 87 81 82 67 80 63
25 24 23 22 21 22 23 27 27 31 34 40 48 46 37 30 31 34 37 38 38 40 42 43 44 49 53 49 49 49 50 54 58 62 75 87 85 86 84 83 87 94 99 91 72 59 81 72 70
25 25 23 22 21 21 23 27 27 30 35 43 40 33 33 34 36 37 36 34 36 40 43 46 47 51 56 55 51 51 53 58 61 64 64 67 79 89 87 88 87 85 90 100 94 94 80 76 80
28 27 25 22 21 21 22 24 27 30 34 39 38 36 37 36 36 37 35 37 39 41 45 48 49 51 56 55 55 56 57 61 66 69 69 70 67 77 83 86 92 88 85 87 99 92 82 71 82
26 26 26 24 21 21 20 23 27 31 36 38 37 35 36 34 34 37 36 38 40 41 44 48 50 51 54 56 56 57 61 61 63 65 66 69 69 69 74 80 85 90 88 84 84 98 98 90 82
26 25 23 26 24 21 21 21 29 31 34 36 37 33 34 35 34 36 37 40 43 45 46 49 51 51 53 57 52 57 62 65 68 63 63 65 66 68 70 76 78 84 85 86 81 84 98 94 85
25 25 24 26 26 24 23 19 28 29 31 33 33 34 35 35 35 38 41 44 46 47 47 49 50 51 54 50 54 56 62 63 51 47 53 59 59 60 65 72 74 77 83 81 83 80 86 98 100
27 26 26 27 28 26 25 18 27 28 32 33 31 33 33 34 39 43 46 47 49 50 47 48 49 49 53 48 49 48 54 54 47 47 49 49 50 53 50 63 69 70 73 80 78 77 79 86 95
27 28 28 28 28 28 28 20 26 29 31 31 33 32 31 35 40 43 47 47 48 48 48 47 46 45 50 44 46 51 52 51 50 46 41 41 40 39 41 52 63 66 61 70 73 72 72 76 84
27 27 29 30 28 26 27 20 28 30 30 31 34 32 34 36 41 44 45 45 45 46 48 47 43 42 46 41 41 51 51 53 47 38 35 32 29 28 32 40 46 55 53 57 64 65 59 66 69
Wind_Direction
315 316 274 249 245 241 234 240 245 251 250 252 257 257 257 256 255 252 248 248 251 251 249 257 263 271 280 268 259 256 251 250 247 247 248 246 245 243 243 249 248 247 247 250 249 252 256 254 254
299 315 318 257 245 235 236 244 246 253 252 253 261 257 255 252 253 254 253 248 251 249 248 248 255 263 272 275 269 261 257 254 252 247 247 247 246 243 240 243 246 248 251 252 251 250 251 255 254
311 322 325 286 239 227 243 251 250 256 264 265 260 256 253 248 246 252 252 252 254 253 254 253 252 261 263 266 268 268 260 258 255 250 248 247 245 245 243 241 246 246 247 252 254 254 252 253 255
324 329 342 343 251 245 244 256 266 255 265 277 273 258 249 250 259 252 250 250 252 254 251 252 254 253 254 256 261 266 264 257 257 253 249 248 252 246 248 246 240 246 247 248 254 254 255 255 255
326 339 19 70 111 150 248 232 214 205 270 279 293 264 282 282 277 270 259 255 252 252 254 254 251 253 252 251 253 257 260 261 258 255 254 251 248 249 249 248 247 242 247 247 247 251 252 255 255
323 357 22 44 44 30 34 27 212 240 260 262 40 207 272 283 287 268 262 255 254 255 252 255 257 256 257 252 249 251 254 254 258 259 256 254 251 251 250 250 248 248 246 249 249 245 248 249 252
317 15 28 44 55 33 54 71 108 119 175 237 314 294 282 283 283 292 260 255 253 254 255 256 260 261 260 262 257 253 251 251 250 251 256 257 257 253 251 250 250 249 246 248 248 249 247 248 248
250 352 350 42 41 27 10 66 123 249 284 252 263 265 271 279 290 292 298 264 265 263 264 266 266 264 264 263 263 260 257 254 255 250 250 252 252 254 252 250 249 247 245 244 246 246 249 251 251
254 270 296 306 301 270 259 267 256 259 257 258 266 269 276 288 292 292 291 284 277 272 272 271 272 266 265 268 267 270 261 265 258 251 250 252 251 251 251 250 249 249 245 242 243 244 246 246 252
256 267 276 280 286 284 281 276 281 280 286 290 280 283 279 279 283 288 288 284 279 275 270 270 271 271 267 264 261 263 265 268 262 265 264 257 251 250 248 248 246 247 247 245 244 243 244 246 246
255 259 261 264 275 287 292 286 280 280 284 286 282 278 282 284 286 285 283 282 280 279 279 275 270 268 267 264 264 264 260 260 261 254 249 258 252 245 249 248 246 247 246 246 244 246 245 247 248
255 260 262 263 269 277 279 280 283 277 275 271 271 284 292 293 292 293 290 289 286 283 280 275 271 266 264 264 262 260 258 258 256 253 250 242 253 256 247 247 249 246 245 244 243 243 243 245 247
257 260 262 263 266 274 273 271 275 269 267 271 279 285 288 291 292 294 293 290 287 285 279 271 266 264 261 258 258 259 258 255 256 256 254 254 252 252 248 245 252 246 242 243 242 243 242 241 244
262 262 260 262 267 268 270 278 273 267 274 279 288 293 293 292 298 298 300 299 298 290 281 275 270 261 258 257 255 254 254 254 254 254 254 253 254 241 243 249 239 245 245 243 243 241 241 240 240
263 261 260 261 266 270 269 271 271 275 278 284 289 293 297 296 297 300 305 307 300 292 283 280 281 276 265 257 253 252 253 252 252 252 251 251 251 253 251 249 247 238 238 240 239 243 242 240 241
260 262 262 266 271 271 273 269 272 277 283 285 290 295 296 301 300 307 305 304 295 291 289 283 279 276 270 268 268 264 254 250 250 250 251 249 248 250 250 252 251 251 238 241 244 241 243 242 242
259 260 264 267 272 269 271 274 278 281 283 287 291 297 299 302 303 305 306 303 293 292 288 286 282 277 275 274 268 263 260 261 257 249 249 250 248 248 248 246 248 251 252 251 250 243 244 242 241
260 262 264 268 264 267 273 276 280 285 286 290 297 301 303 304 304 306 305 299 296 292 290 286 283 281 278 276 274 271 267 264 260 257 255 249 249 247 246 246 244 242 250 246 246 247 246 244 247
260 262 265 266 262 269 275 275 286 292 293 299 303 303 303 303 306 305 299 293 292 293 293 294 296 295 291 283 277 272 269 267 263 260 257 255 253 249 247 244 243 242 235 240 244 249 252 247 246
261 264 265 263 268 273 280 286 291 294 300 304 305 304 302 303 305 299 298 296 298 296 296 296 295 293 290 286 280 276 273 270 267 264 261 257 252 253 250 247 243 240 238 240 240 242 247 247 241
262 264 263 267 273 283 291 291 293 295 302 306 306 305 307 309 303 301 298 296 297 303 303 299 300 300 301 295 287 280 274 267 263 262 261 260 258 253 250 248 246 243 240 240 245 239 239 250 246
263 263 265 271 278 284 292 298 298 300 307 308 309 312 312 309 306 300 299 305 307 307 311 304 302 306 312 304 294 285 282 279 275 269 260 255 254 253 252 248 245 243 241 238 228 223 239 236 246
267 268 271 273 280 289 293 299 302 305 311 313 314 311 307 309 308 306 308 309 314 320 321 321 314 314 316 310 300 292 289 287 284 278 270 262 254 250 248 247 245 243 240 237 235 235 239 240 240
266 272 274 276 284 290 292 297 303 308 317 314 312 309 311 312 310 310 310 318 320 324 326 325 320 316 316 311 304 300 296 292 288 282 275 269 264 252 246 244 242 242 239 236 235 234 229 237 239
267 274 279 279 284 291 292 301 305 310 319 315 314 312 313 312 314 314 317 319 323 323 323 325 323 319 317 310 307 305 302 301 296 283 279 271 260 257 249 243 239 239 240 235 231 232 228 233 239
266 275 280 286 288 294 300 308 308 315 320 318 317 312 313 318 317 319 319 319 323 323 322 323 324 320 317 314 309 309 313 309 306 291 282 275 267 256 254 245 240 237 236 237 231 229 229 227 224
265 275 280 285 288 295 297 310 308 317 319 320 323 316 311 318 319 321 323 320 320 323 321 321 322 322 319 318 315 315 314 315 312 299 285 279 274 265 252 242 238 238 234 234 233 230 227 227 227
266 272 278 284 287 291 294 314 301 317 320 319 320 323 313 321 325 324 324 322 322 322 321 322 325 324 323 320 320 320 322 325 311 300 295 286 278 269 255 239 235 234 235 232 232 229 229 227 227
265 272 278 280 282 289 299 317 308 319 321 316 320 323 319 321 323 324 324 323 322 323 325 325 327 323 326 321 324 324 322 326 321 311 306 297 283 271 251 238 233 232 233 230 227 225 229 227 226
265 271 275 277 280 287 295 314 312 317 321 314 319 321 321 326 326 325 325 325 323 326 328 328 330 325 330 327 328 333 332 331 328 321 322 316 297 273 248 234 226 228 233 228 223 221 225 229 225